When you browse on this site, cookies collect data to enhance your experience and personalize the content and advertising you see.
Visit our Privacy Policy to learn more. By continuing to use the site, you agree to this use of cookies and data.
  • In Czech Republic
  • List of Countries
  • For 7 days
  • Water Temperature
  • Satellite Maps
  • Weather Map
  • Weather Widgets
  • user-avatar
    Login

    Hourly Weather Lankaran

    Today, 18 June, Tuesday

    Time Temperature Precipitation Wind Pressure Humidity
    00:00 +16°C° 0.1 mm 1 mps 631 mmHg 72%
    01:00 +16°C° 0 mm 1 mps 631 mmHg 73%
    02:00 +14°C° 0 mm 0 mps 631 mmHg 74%
    03:00 +14°C° 0 mm 0 mps 631 mmHg 74%
    04:00 +15°C° 0 mm 0 mps 631 mmHg 71%
    05:00 +18°C° 0 mm 1 mps 632 mmHg 68%
    06:00 +19°C° 0 mm 1 mps 633 mmHg 65%
    07:00 +20°C° 0 mm 1 mps 633 mmHg 59%
    08:00 +21°C° 0 mm 2 mps 633 mmHg 53%
    09:00 +22°C° 0 mm 3 mps 634 mmHg 47%
    10:00 +22°C° 0 mm 3 mps 634 mmHg 45%
    11:00 +23°C° 0 mm 4 mps 634 mmHg 43%
    12:00 +23°C° 0 mm 4 mps 634 mmHg 41%
    13:00 +23°C° 0 mm 4 mps 633 mmHg 41%
    14:00 +23°C° 0 mm 4 mps 633 mmHg 42%
    15:00 +22°C° 0 mm 4 mps 632 mmHg 42%
    16:00 +21°C° 0 mm 3 mps 632 mmHg 46%
    17:00 +20°C° 0 mm 3 mps 632 mmHg 49%
    18:00 +19°C° 0 mm 2 mps 631 mmHg 53%
    19:00 +18°C° 0 mm 2 mps 631 mmHg 53%
    20:00 +16°C° 0 mm 2 mps 631 mmHg 54%
    21:00 +15°C° 0 mm 1 mps 631 mmHg 54%
    22:00 +15°C° 0 mm 1 mps 631 mmHg 54%
    23:00 +15°C° 0 mm 1 mps 631 mmHg 54%

    Tomorrow, 19 June, Wednesday

    Time Temperature Precipitation Wind Pressure Humidity
    00:00 +15°C° 0 mm 1 mps 631 mmHg 53%
    01:00 +14°C° 0 mm 1 mps 631 mmHg 54%
    02:00 +14°C° 0 mm 1 mps 631 mmHg 56%
    03:00 +14°C° 0 mm 1 mps 630 mmHg 57%
    04:00 +15°C° 0 mm 1 mps 631 mmHg 56%
    05:00 +16°C° 0 mm 1 mps 631 mmHg 54%
    06:00 +18°C° 0 mm 1 mps 632 mmHg 53%
    07:00 +18°C° 0 mm 2 mps 632 mmHg 48%
    08:00 +20°C° 0 mm 2 mps 633 mmHg 44%
    09:00 +21°C° 0 mm 2 mps 634 mmHg 39%
    10:00 +22°C° 0 mm 3 mps 634 mmHg 39%
    11:00 +23°C° 0 mm 4 mps 634 mmHg 38%
    12:00 +23°C° 0 mm 4 mps 634 mmHg 37%
    13:00 +23°C° 0 mm 4 mps 633 mmHg 37%
    14:00 +23°C° 0 mm 4 mps 633 mmHg 37%
    15:00 +23°C° 0 mm 4 mps 633 mmHg 37%
    16:00 +22°C° 0 mm 4 mps 632 mmHg 42%
    17:00 +21°C° 0 mm 3 mps 632 mmHg 47%
    18:00 +20°C° 0 mm 3 mps 631 mmHg 53%
    19:00 +19°C° 0 mm 2 mps 631 mmHg 53%
    20:00 +17°C° 0 mm 2 mps 631 mmHg 53%
    21:00 +16°C° 0 mm 1 mps 631 mmHg 53%
    22:00 +16°C° 0 mm 1 mps 631 mmHg 51%
    23:00 +15°C° 0 mm 1 mps 631 mmHg 50%

    Day after tomorrow, 20 June, Thursday

    Time Temperature Precipitation Wind Pressure Humidity
    00:00 +15°C° 0 mm 1 mps 631 mmHg 48%
    01:00 +15°C° 0 mm 1 mps 631 mmHg 49%
    02:00 +14°C° 0 mm 1 mps 631 mmHg 50%
    03:00 +14°C° 0 mm 1 mps 630 mmHg 51%
    04:00 +15°C° 0 mm 1 mps 631 mmHg 51%
    05:00 +16°C° 0 mm 1 mps 631 mmHg 52%
    06:00 +19°C° 0 mm 1 mps 632 mmHg 52%
    07:00 +19°C° 0 mm 2 mps 632 mmHg 48%
    08:00 +20°C° 0 mm 2 mps 633 mmHg 44%
    09:00 +22°C° 0 mm 3 mps 633 mmHg 39%
    10:00 +22°C° 0 mm 3 mps 633 mmHg 39%
    11:00 +23°C° 0 mm 4 mps 633 mmHg 38%
    12:00 +25°C° 0 mm 4 mps 633 mmHg 37%
    13:00 +25°C° 0 mm 4 mps 633 mmHg 37%
    14:00 +23°C° 0 mm 4 mps 633 mmHg 37%
    15:00 +23°C° 0 mm 4 mps 632 mmHg 36%
    16:00 +22°C° 0 mm 3 mps 632 mmHg 40%
    17:00 +21°C° 0 mm 3 mps 631 mmHg 43%
    18:00 +20°C° 0 mm 2 mps 631 mmHg 47%
    19:00 +19°C° 0 mm 2 mps 631 mmHg 47%
    20:00 +18°C° 0 mm 1 mps 631 mmHg 48%
    21:00 +16°C° 0 mm 1 mps 631 mmHg 49%
    22:00 +16°C° 0 mm 1 mps 630 mmHg 50%
    23:00 +16°C° 0 mm 1 mps 630 mmHg 51%

    21 June, Friday

    Time Temperature Precipitation Wind Pressure Humidity
    00:00 +15°C° 0 mm 1 mps 630 mmHg 52%
    01:00 +15°C° 0 mm 1 mps 630 mmHg 53%
    02:00 +15°C° 0 mm 1 mps 630 mmHg 55%
    03:00 +15°C° 0 mm 1 mps 630 mmHg 56%
    04:00 +15°C° 0 mm 1 mps 631 mmHg 57%
    05:00 +16°C° 0 mm 1 mps 631 mmHg 57%
    06:00 +18°C° 0 mm 1 mps 631 mmHg 57%
    07:00 +18°C° 0 mm 2 mps 632 mmHg 54%
    08:00 +20°C° 0 mm 3 mps 633 mmHg 50%
    09:00 +21°C° 0 mm 3 mps 633 mmHg 47%
    10:00 +22°C° 0 mm 4 mps 633 mmHg 46%
    11:00 +22°C° 0 mm 4 mps 633 mmHg 45%
    12:00 +23°C° 0 mm 5 mps 633 mmHg 44%
    13:00 +23°C° 0 mm 5 mps 633 mmHg 45%
    14:00 +22°C° 0 mm 4 mps 632 mmHg 45%
    15:00 +22°C° 0 mm 4 mps 632 mmHg 46%
    16:00 +21°C° 0 mm 4 mps 632 mmHg 49%
    17:00 +20°C° 0 mm 4 mps 632 mmHg 52%
    18:00 +19°C° 0 mm 3 mps 631 mmHg 54%
    19:00 +17°C° 0 mm 3 mps 631 mmHg 55%
    20:00 +16°C° 0 mm 2 mps 632 mmHg 56%
    21:00 +15°C° 0 mm 2 mps 632 mmHg 57%
    22:00 +15°C° 0 mm 2 mps 632 mmHg 56%
    23:00 +15°C° 0 mm 2 mps 632 mmHg 56%

    22 June, Saturday

    Time Temperature Precipitation Wind Pressure Humidity
    00:00 +14°C° 0 mm 2 mps 632 mmHg 55%
    01:00 +14°C° 0 mm 2 mps 632 mmHg 57%
    02:00 +14°C° 0 mm 2 mps 632 mmHg 59%
    03:00 +14°C° 0 mm 2 mps 631 mmHg 61%
    04:00 +15°C° 0 mm 2 mps 632 mmHg 58%
    05:00 +16°C° 0 mm 1 mps 632 mmHg 56%
    06:00 +18°C° 0 mm 1 mps 633 mmHg 54%
    07:00 +18°C° 0 mm 2 mps 634 mmHg 50%
    08:00 +20°C° 0 mm 2 mps 634 mmHg 46%
    09:00 +22°C° 0 mm 3 mps 635 mmHg 42%
    10:00 +22°C° 0 mm 3 mps 635 mmHg 40%
    11:00 +23°C° 0 mm 4 mps 635 mmHg 38%
    12:00 +25°C° 0 mm 4 mps 635 mmHg 37%
    13:00 +25°C° 0 mm 4 mps 635 mmHg 37%
    14:00 +25°C° 0 mm 4 mps 634 mmHg 37%
    15:00 +25°C° 0 mm 4 mps 634 mmHg 38%
    16:00 +24°C° 0 mm 3 mps 634 mmHg 42%
    17:00 +21°C° 0 mm 3 mps 633 mmHg 46%
    18:00 +20°C° 0 mm 2 mps 633 mmHg 50%
    19:00 +19°C° 0 mm 2 mps 633 mmHg 52%
    20:00 +17°C° 0 mm 2 mps 633 mmHg 54%
    21:00 +16°C° 0 mm 1 mps 632 mmHg 55%
    22:00 +16°C° 0 mm 1 mps 632 mmHg 52%
    23:00 +16°C° 0 mm 1 mps 632 mmHg 49%

    23 June, Sunday

    Time Temperature Precipitation Wind Pressure Humidity
    00:00 +16°C° 0 mm 1 mps 632 mmHg 46%
    01:00 +16°C° 0 mm 1 mps 632 mmHg 46%
    02:00 +16°C° 0 mm 1 mps 632 mmHg 45%
    03:00 +16°C° 0 mm 1 mps 632 mmHg 45%
    04:00 +18°C° 0 mm 1 mps 632 mmHg 45%
    05:00 +19°C° 0 mm 1 mps 633 mmHg 45%
    06:00 +18°C° 0 mm 0 mps 633 mmHg 45%
    07:00 +21°C° 0 mm 1 mps 634 mmHg 43%
    08:00 +23°C° 0 mm 2 mps 634 mmHg 40%
    09:00 +24°C° 0 mm 2 mps 635 mmHg 38%
    10:00 +25°C° 0 mm 3 mps 635 mmHg 38%
    11:00 +26°C° 0 mm 3 mps 635 mmHg 39%
    12:00 +27°C° 0 mm 4 mps 635 mmHg 39%
    13:00 +27°C° 0 mm 4 mps 635 mmHg 42%
    14:00 +26°C° 0 mm 4 mps 634 mmHg 44%
    15:00 +26°C° 0 mm 4 mps 634 mmHg 47%
    16:00 +25°C° 0 mm 3 mps 633 mmHg 52%
    17:00 +24°C° 0 mm 3 mps 633 mmHg 56%
    18:00 +22°C° 0 mm 3 mps 633 mmHg 61%
    19:00 +20°C° 0 mm 2 mps 632 mmHg 65%
    20:00 +20°C° 0 mm 1 mps 632 mmHg 68%
    21:00 +18°C° 0 mm 1 mps 632 mmHg 72%
    22:00 +18°C° 0 mm 1 mps 632 mmHg 71%
    23:00 +18°C° 0 mm 1 mps 632 mmHg 69%
    Show more